Location: York
(31.8935°S, 116.7682°E)
Time: 15:46:41
(UTC+08:00)

Courier 1B - All Passes

Search period start: 25 September 2022 00:00
Search period end: 05 October 2022 00:00
Orbit: 962 x 1209 km, 28.3° (Epoch: 24 September)

Date Brightness Start Highest point End Pass type
(mag) Time Alt. Az. Time Alt. Az. Time Alt. Az.
25 Sep - 03:52:05 10° NNW 03:58:05 27° NNE 04:04:20 10° E visible
25 Sep - 05:44:27 10° WNW 05:51:52 55° NNE 05:59:32 10° E daylight
25 Sep - 07:38:20 10° W 07:46:07 69° N 07:53:58 10° E daylight
25 Sep - 09:32:43 10° W 09:40:22 53° NNW 09:47:51 10° ENE daylight
25 Sep - 11:27:58 10° W 11:34:10 26° NNW 11:40:09 10° NNE daylight
26 Sep - 02:59:17 10° NNW 03:04:22 20° NNE 03:09:39 10° ENE visible
26 Sep - 04:50:52 10° NW 04:57:58 47° NNE 05:05:25 10° E visible
26 Sep - 06:44:26 10° WNW 06:52:07 68° N 06:59:58 10° E daylight
26 Sep - 08:38:41 10° W 08:46:25 60° NNW 08:54:06 10° ENE daylight
26 Sep - 10:33:31 10° W 10:40:22 33° NNW 10:47:02 10° NE daylight
26 Sep - 12:32:24 10° NW 12:33:50 11° NW 12:35:16 10° NNW daylight
27 Sep - 02:07:04 10° N 02:10:42 14° NNE 02:14:27 10° ENE visible
27 Sep - 03:57:26 10° NW 04:04:08 39° NNE 04:11:12 10° E visible
27 Sep - 05:50:38 10° WNW 05:58:08 65° N 06:05:56 10° E daylight
27 Sep - 07:44:43 10° W 07:52:26 65° N 08:00:15 10° ENE daylight
27 Sep - 09:39:17 10° W 09:46:31 40° NNW 09:53:39 10° NE daylight
27 Sep - 11:35:48 10° WNW 11:40:07 16° NNW 11:44:23 10° N daylight
28 Sep - 03:04:12 10° NW 03:10:23 31° NNE 03:16:53 10° E visible
28 Sep - 04:56:55 10° WNW 05:04:11 59° N 05:11:51 10° E visible
28 Sep - 06:50:48 10° W 06:58:26 68° N 07:06:17 10° ENE daylight
28 Sep - 08:45:10 10° W 08:52:38 48° NNW 09:00:06 10° NE daylight
28 Sep - 10:40:45 10° WNW 10:46:22 21° NNW 10:51:55 10° NNE daylight
29 Sep - 02:11:14 10° NNW 02:16:41 24° NNE 02:22:24 10° ENE visible
29 Sep - 04:03:18 10° WNW 04:10:19 52° NNE 04:17:44 10° E visible
29 Sep - 05:56:58 10° W 06:04:27 69° N 06:12:17 10° E daylight
29 Sep - 07:51:09 10° W 07:58:42 55° NNW 08:06:21 10° ENE daylight
29 Sep - 09:46:09 10° W 09:52:35 28° NNW 09:58:58 10° NNE daylight
30 Sep - 01:18:38 10° N 01:23:02 18° NNE 01:27:36 10° ENE visible
30 Sep - 03:09:50 10° NW 03:16:30 44° NNE 03:23:35 10° E visible
30 Sep - 05:03:11 10° WNW 05:10:30 67° N 05:18:13 10° E visible
30 Sep - 06:57:14 10° W 07:04:44 61° N 07:12:30 10° ENE daylight
30 Sep - 08:51:51 10° W 08:58:45 34° NNW 09:05:41 10° NE daylight
30 Sep - 10:49:32 10° NW 10:52:20 12° NNW 10:55:07 10° NNW daylight
01 Oct - 00:26:53 10° N 00:29:27 12° NNE 00:32:04 10° NE night (unlit)
01 Oct - 02:16:31 10° NW 02:22:45 36° NNE 02:29:21 10° E visible
01 Oct - 04:09:29 10° WNW 04:16:35 63° N 04:24:08 10° E visible
01 Oct - 06:03:22 10° W 06:10:47 65° N 06:18:32 10° ENE daylight
01 Oct - 07:57:43 10° W 08:04:52 42° NNW 08:12:10 10° NE daylight
01 Oct - 09:53:49 10° WNW 09:58:34 17° NNW 10:03:20 10° N daylight
02 Oct - 01:23:24 10° NNW 01:29:04 28° NNE 01:35:02 10° E visible
02 Oct - 03:15:52 10° WNW 03:22:43 57° NNE 03:30:03 10° E visible
02 Oct - 05:09:34 10° W 05:16:50 68° N 05:24:32 10° ENE visible
02 Oct - 07:03:44 10° W 07:10:59 49° NNW 07:18:28 10° NE daylight
02 Oct - 08:59:00 10° WNW 09:04:47 23° NNW 09:10:37 10° NNE daylight
03 Oct - 00:30:33 10° NNW 00:35:27 22° NNE 00:40:32 10° ENE night (unlit)
03 Oct - 02:22:21 10° WNW 02:28:56 49° NNE 02:35:57 10° E visible
03 Oct - 04:15:50 10° W 04:22:55 68° N 04:30:29 10° E visible
03 Oct - 06:09:50 10° W 06:17:04 55° NNW 06:24:39 10° ENE daylight
03 Oct - 08:04:36 10° W 08:10:58 29° NNW 08:17:29 10° NNE daylight
03 Oct - 23:38:09 10° N 23:41:51 16° NNE 23:45:39 10° ENE night (unlit)
04 Oct - 01:28:58 10° NW 01:35:12 41° NNE 01:41:49 10° E visible
04 Oct - 03:22:09 10° WNW 03:29:03 65° N 03:36:26 10° E visible
04 Oct - 05:16:02 10° W 05:23:11 61° N 05:30:44 10° ENE visible
04 Oct - 07:10:26 10° W 07:17:08 35° NNW 07:24:05 10° NE daylight
04 Oct - 09:07:30 10° WNW 09:10:47 13° NNW 09:14:07 10° N daylight
04 Oct - 22:47:14 10° NNE 22:48:18 10° NNE 22:49:23 10° NE night (unlit)
